Showing default

POLYITAN 1, 40042

Orbit data source: Space-Track

POLYITAN 1, 40042 is a payload satellite owned by Kyiv Polytechnic (UA) in SSO that was launched on Thu, 19 Jun 2014 UTC via a DNEPR launch vehicle from the Orenburg, Russia (OREN). Payloads include a variety of satellites, spacecraft, and rockets equipped with specific instruments for various scientific and technological missions. These include communications satellites like Starlink; space stations such as the ISS; scientific satellites like the Hubble; Earth observation satellites from companies like Planet Labs, Umbra, and HawkEye 360; GPS; miniature CubeSats for education and research; and military/defense satellites.

Loading next visibility...
POLYITAN 1 details
Identifier
40042, 2014-033AJ
Orbit
SSO
Last TLE update16 hours ago
Origin
Flag of UAKyiv Polytechnic (UA / UKR)
ManufacturerKyiv Polytechnic
MissionOperational Commercial Technology
Bus & MotorCUBESAT 1U, Unknown motor
Mass1 kg wet, 1 kg dry
Launch date (UTC)
2014-06-19 (11 years ago)
Launch vehicle
DNEPR
Launch site
Orenburg, Russia (OREN)
Object type
Payload
Rocket body
Debris
Shape & HBRBox, 0.1 m
Radar Cross Section0.015 m², Small (<0.1 m²)

Expand to show TLE details & history

TLE from 16 hours ago
0 POLYITAN 1
1 40042U 14033AJ  24360.92881967  .00022496  00000-0  13432-2 0  9994
2 40042  98.0910 334.4704 0009687 194.9500 165.1443 15.11090172571703
Epoch: 2024-12-25T22:17Z
Definitive object data (Epoch: 2024-12-25T22:17:30.019Z)
Latitude-0.00006°
Longitude-94.8202°
Altitude542.405 km
Speed7.588 km/s
True Right ascension22h 17m 52s
True Declination0° 00' 00"
Sunlit
Object was in daylight at TLE epoch
Visualization TLE readout
Latitude78.15783°
Longitude-136.50242°
Altitude548.393 km
Speed7.593 km/s
Apparent Right ascension00h 47m 58s
Apparent Declination28° 26' 06"
Sunlit
Object is in daylight
Visualization observer readout
Local Sidereal Time13:54:25
Azimuth15.509° NNE
Elevation-19.924°
Doppler factor1
Orbital elements
Apogee altitude536.574 km
Perigee altitude523.19 km
Semi-major axis6,908.019 km
Eccentricity0.0009687
Inclination98.091°
RAAN334.4704°
Arg. of periapsis194.95°
True anomaly165.17273°
Mean anomaly165.1443°
Eccentric anomaly165.15852°
Mean motion3.78018 °/min
BSTAR0.0013432
Orbital period95.23 mins
Loading maneuver chart data...
Loading historical data...
Loading historical data...
Loading historical data...
Loading historical data...
Loading historical data...
Loading historical data...
Loading historical data...

POLYITAN 1 Visibility forecast

Observer location: undefined°, undefined

Span
Click to sort rows by Start time (UTC) header in descending order
Start Az.
Max El. time (UTC)
Max El. Az.
Max El.
End time (UTC)
End Az.
6 mins2024-12-26 22:15:33.706Z152.468° SSE2024-12-26 22:18:33.706Z82.92° E41.077°2024-12-26 22:21:33.706Z357.36° N
5 mins2024-12-27 11:25:33.706Z11.594° NNE2024-12-27 11:27:33.706Z292.164° WNW44.962°2024-12-27 11:30:33.706Z195.123° SSW
|